Weather History for KCPC - February, 2013

Change the Weather History Date:

Tuesday, February 19, 2013

  Actual Average (KLBT) Record (KLBT)
Temperature  
Mean Temperature 45 °F 48 °F  
Max Temperature 59 °F 59 °F 76 °F (2014)
Min Temperature 31 °F 36 °F 19 °F (2015)
Degree Days  
Heating Degree Days 20 17  
Month to date heating degree days 365  
Since 1 July heating degree days 2084  
Cooling Degree Days 0 0  
Month to date cooling degree days 0  
Year to date cooling degree days 1  
Moisture  
Dew Point 42 °F    
Average Humidity 85    
Maximum Humidity 96    
Minimum Humidity 61    
Precipitation  
Precipitation 0.00 in 0.12 in 0.71 in (2012)
Month to date precipitation 1.88  
Year to date precipitation 4.85  
Sea Level Pressure  
Sea Level Pressure 30.08 in    
Wind  
Wind Speed 3 mph (SSW)    
Max Wind Speed 15 mph    
Max Gust Speed 26 mph    
Visibility 10 miles    
Events Rain    
T = Trace of Precipitation, MM = Missing Value Source: NWS Daily Summary

Daily Weather History Graph

Daily Weather History Graph

Search for Another Location

Airport or City:

Trip Planner

Search our weather history database for the weather conditions in past years. The results will help you decide how hot, cold, wet, or windy it might be!

Date:

Astronomy

Feb. 19, 2013 Rise Set
Actual Time 6:55 AM EST 6:02 PM EST
Civil Twilight 6:29 AM EST 6:27 PM EST
Nautical Twilight 6:00 AM EST 6:57 PM EST
Astronomical Twilight 5:31 AM EST 7:26 PM EST
Moon 12:40 PM EST (2/19) 2:17 AM EST (2/19)
Length of Visible Light 11h 58m
Length of Day
11h 07m
Waxing Gibbous, 67% of the Moon is Illuminated
Feb 19
Waxing Gibbous
Feb 25
Full
Mar 4
Last Quarter
Mar 11
New
Mar 19
First Quarter

Hourly Weather History & Observations

Time (EST) Temp. Dew Point Humidity Pressure Visibility Wind Dir Wind Speed Gust Speed Precip Events Conditions
12:15 AM 32.9 °F 28.8 °F 85% 30.29 in 10.0 mi Calm Calm - N/A   Clear
12:35 AM 32.7 °F 28.8 °F 85% 30.28 in 10.0 mi Calm Calm - N/A   Clear
12:55 AM 32.7 °F 29.3 °F 87% 30.28 in 10.0 mi Calm Calm - N/A   Clear
1:15 AM 32.2 °F 29.1 °F 88% 30.27 in 10.0 mi Calm Calm - N/A   Clear
1:35 AM 31.8 °F 29.1 °F 90% 30.26 in 10.0 mi Calm Calm - N/A   Clear
1:55 AM 33.3 °F 29.3 °F 85% 30.25 in 10.0 mi Calm Calm - N/A   Clear
2:15 AM 32.9 °F 30.0 °F 89% 30.24 in 10.0 mi Calm Calm - N/A   Clear
2:35 AM 35.2 °F 30.9 °F 84% 30.23 in 10.0 mi Calm Calm - N/A   Clear
2:55 AM 34.5 °F 30.0 °F 84% 30.23 in 10.0 mi Calm Calm - N/A   Clear
3:15 AM 32.2 °F 29.7 °F 90% 30.21 in 10.0 mi Calm Calm - N/A   Scattered Clouds
3:35 AM 34.0 °F 30.6 °F 87% 30.20 in 10.0 mi Calm Calm - N/A   Scattered Clouds
3:55 AM 33.6 °F 30.4 °F 88% 30.19 in 10.0 mi Calm Calm - N/A   Clear
4:15 AM 36.3 °F 33.6 °F 90% 30.18 in 10.0 mi Calm Calm - N/A   Clear
4:35 AM 38.7 °F 34.9 °F 86% 30.17 in 10.0 mi Calm Calm - N/A   Clear
4:55 AM 39.9 °F 36.0 °F 86% 30.17 in 10.0 mi Calm Calm - N/A   Clear
5:15 AM 36.5 °F 33.3 °F 88% 30.16 in 10.0 mi Calm Calm - N/A   Clear
5:35 AM 38.3 °F 35.6 °F 90% 30.15 in 10.0 mi Calm Calm - N/A   Clear
5:55 AM 35.6 °F 33.1 °F 91% 30.15 in 10.0 mi Calm Calm - N/A   Clear
6:15 AM 34.7 °F 32.9 °F 93% 30.15 in 10.0 mi Calm Calm - N/A   Clear
6:55 AM 35.6 °F 33.6 °F 92% 30.15 in 10.0 mi Calm Calm - N/A   Scattered Clouds
7:15 AM 35.2 °F 33.8 °F 94% 30.15 in 10.0 mi Calm Calm - N/A   Scattered Clouds
7:35 AM 35.6 °F 33.6 °F 92% 30.14 in 10.0 mi Calm Calm - N/A   Scattered Clouds
7:55 AM 39.4 °F 38.3 °F 96% 30.14 in 10.0 mi Calm Calm - N/A   Scattered Clouds
8:15 AM 45.0 °F 41.7 °F 88% 30.15 in 10.0 mi Calm Calm - N/A   Scattered Clouds
8:35 AM 47.3 °F 42.8 °F 84% 30.15 in 10.0 mi Calm Calm - N/A   Scattered Clouds
8:55 AM 49.1 °F 43.7 °F 82% 30.13 in 10.0 mi SE 4.6 mph - N/A   Scattered Clouds
9:15 AM 50.4 °F 44.6 °F 81% 30.13 in 10.0 mi SSE 3.5 mph - N/A   Scattered Clouds
9:35 AM 52.0 °F 45.3 °F 78% 30.13 in 10.0 mi South 3.5 mph - N/A   Scattered Clouds
9:55 AM 53.2 °F 45.9 °F 76% 30.11 in 10.0 mi South 3.5 mph - N/A   Scattered Clouds
10:15 AM 54.5 °F 46.6 °F 75% 30.11 in 10.0 mi South 4.6 mph - N/A   Scattered Clouds
10:35 AM 55.4 °F 47.7 °F 75% 30.10 in 10.0 mi South 6.9 mph - N/A   Scattered Clouds
10:55 AM 56.5 °F 48.0 °F 73% 30.10 in 10.0 mi SSW 8.1 mph - N/A   Clear
11:15 AM 57.7 °F 48.2 °F 70% 30.09 in 10.0 mi SSW 9.2 mph - N/A   Clear
11:35 AM 58.8 °F 47.5 °F 66% 30.08 in 10.0 mi SSW 9.2 mph - N/A   Clear
11:55 AM 59.0 °F 46.9 °F 64% 30.07 in 10.0 mi SSW 6.9 mph - N/A   Clear
12:15 PM 59.5 °F 46.0 °F 61% 30.06 in 10.0 mi SSW 6.9 mph - N/A   Clear
12:35 PM 59.7 °F 46.8 °F 62% 30.06 in 10.0 mi SW 9.2 mph - N/A Rain Light Rain
12:55 PM 58.1 °F 47.8 °F 69% 30.04 in 10.0 mi SSW 6.9 mph - N/A Rain Light Rain
1:15 PM 57.4 °F 48.6 °F 72% 30.01 in 10.0 mi SW 6.9 mph 17.3 mph N/A Rain Light Rain
1:35 PM 57.4 °F 49.1 °F 74% 30.00 in 10.0 mi SW 8.1 mph - N/A   Clear
1:55 PM 57.6 °F 49.5 °F 74% 29.99 in 10.0 mi SSW 8.1 mph - N/A Rain Light Rain
2:15 PM 57.6 °F 49.6 °F 75% 29.98 in 10.0 mi SSW 9.2 mph - N/A Rain Light Rain
2:35 PM 57.9 °F 49.5 °F 73% 29.98 in 10.0 mi SSW 15.0 mph 20.7 mph N/A   Light Drizzle
2:55 PM 56.7 °F 50.2 °F 79% 29.98 in 4.0 mi SSW 15.0 mph 26.5 mph N/A   Heavy Drizzle
3:15 PM 54.7 °F 51.8 °F 90% 29.97 in 2.5 mi SSW 12.7 mph 23.0 mph N/A   Heavy Drizzle
3:35 PM 54.9 °F 52.9 °F 93% 29.95 in 10.0 mi South 15.0 mph 21.9 mph N/A   Mostly Cloudy
4:15 PM 55.0 °F 53.2 °F 94% 29.94 in 10.0 mi SSW 13.8 mph 23.0 mph N/A   Mostly Cloudy
4:35 PM 55.2 °F 53.6 °F 94% 29.94 in 3.0 mi SSW 12.7 mph - N/A Rain Light Rain
4:55 PM 55.2 °F 53.8 °F 95% 29.94 in 2.5 mi SSW 15.0 mph - N/A   Light Drizzle
5:15 PM 55.0 °F 53.6 °F 95% 29.93 in 7.0 mi SW 10.4 mph - N/A   Overcast
5:35 PM 54.9 °F 53.6 °F 96% 29.93 in 5.0 mi SW 10.4 mph - N/A   Drizzle
5:55 PM 54.9 °F 53.6 °F 96% 29.94 in 10.0 mi SW 10.4 mph 16.1 mph N/A   Overcast
6:15 PM 54.9 °F 53.2 °F 94% 29.94 in 10.0 mi WSW 6.9 mph 18.4 mph N/A   Overcast
7:35 PM 53.6 °F 50.9 °F 91% 29.96 in 10.0 mi SW 6.9 mph - N/A   Scattered Clouds
7:55 PM 52.9 °F 50.2 °F 91% 29.96 in 10.0 mi SW 9.2 mph - N/A   Scattered Clouds
8:35 PM 51.8 °F 49.1 °F 90% 29.98 in 10.0 mi WSW 6.9 mph - N/A   Mostly Cloudy
8:55 PM 50.9 °F 48.2 °F 90% 29.98 in 10.0 mi WSW 4.6 mph - N/A   Scattered Clouds
9:15 PM 50.4 °F 47.7 °F 90% 29.99 in 10.0 mi WSW 4.6 mph - N/A   Clear
9:35 PM 49.8 °F 46.8 °F 89% 29.99 in 10.0 mi WSW 4.6 mph - N/A   Clear
9:55 PM 49.3 °F 46.0 °F 89% 30.00 in 10.0 mi WSW 4.6 mph - N/A   Clear
10:15 PM 48.4 °F 45.0 °F 88% 29.99 in 10.0 mi Calm Calm - N/A   Clear
10:35 PM 48.2 °F 44.6 °F 87% 29.99 in 10.0 mi WSW 3.5 mph - N/A   Clear
10:55 PM 47.3 °F 43.9 °F 88% 29.99 in 10.0 mi Calm Calm - N/A   Clear
11:15 PM 46.4 °F 43.7 °F 90% 29.99 in 10.0 mi Calm Calm - N/A   Clear
11:35 PM 45.3 °F 42.6 °F 90% 29.99 in 10.0 mi Calm Calm - N/A   Clear
11:55 PM 45.0 °F 43.2 °F 93% 29.99 in 10.0 mi Calm Calm - N/A   Clear